[[{"header":{"parameterUnit":"m.s-1","parameterCategory":1,"la1":30.2991,"la2":30.254,"lo1":-89.0895,"lo2":-89.0444,"dx":0.0017,"dy":0.0017,"nx":28,"ny":28,"refTime":"2023-01-09T03:00:00:Z","depth":0,"parameterNumber":2,"parameterNumberName":"U-component_of_WINDS"},"data":[0,0,0,0,0,0,0,0,0,0,0,0,0,0,0,0,0,0,0,0,0,0,0,0,0,0,0,0,0,0,0,0,0,0,0,0,0,0,0,0,0,0,0,0,0,0,0,0,0,0,0,0,0,0,0,0,0,0,-1.8028,-1.8028,0,-1.8058,-1.8059,-1.8059,-1.8029,-1.8028,-1.8027,-1.8026,-1.8057,-1.8058,-1.806,0,0,0,0,0,0,0,0,0,0,0,0,0,-1.7942,-1.7944,-1.8028,-1.8028,-1.8028,-1.8058,-1.8059,-1.8059,-1.8029,-1.8028,-1.8026,-1.8025,-1.8056,-1.8058,-1.806,0,0,0,0,0,0,0,0,0,0,0,0,0,-1.7977,-1.7944,-1.8028,-1.8017,-1.8017,-1.8058,-1.8059,-1.8059,-1.803,-1.8028,-1.8026,-1.8024,-1.8055,-1.8058,-1.8061,-1.8114,0,0,-1.807,-1.8071,0,0,0,0,0,0,0,0,-1.7975,-1.798,-1.8018,-1.8018,-1.8017,-1.8038,-1.804,-1.8078,-1.803,-1.8025,-1.8026,-1.8024,-1.8052,-1.8055,-1.8064,-1.8116,-1.8117,-1.807,-1.8072,-1.8073,-1.8074,0,0,0,0,0,0,0,-1.7972,-1.7978,-1.804,-1.8019,-1.8018,-1.8011,-1.8014,-1.8047,-1.8048,-1.8025,-1.8023,-1.8027,-1.8051,-1.8062,-1.8065,-1.8117,-1.807,-1.8072,-1.8074,-1.8075,-1.8213,-1.8215,0,0,0,0,0,0,-1.7971,-1.7977,-1.8039,-1.8041,-1.7991,-1.8014,-1.8017,-1.8033,-1.8047,-1.8048,-1.8028,-1.8025,-1.8058,-1.8062,-1.8066,-1.8129,-1.8073,-1.8076,-1.8077,-1.8211,-1.8214,-1.8216,0,0,0,0,0,0,-1.797,-1.7977,-1.8038,-1.8008,-1.8015,-1.8017,-1.8036,-1.8035,-1.8045,-1.805,-1.805,-1.8039,-1.8056,-1.8062,-1.8102,-1.813,-1.8077,-1.8079,-1.8209,-1.8212,-1.8215,-1.8256,0,0,0,0,0,0,-1.7967,-1.7977,-1.7997,-1.8009,-1.8017,-1.8074,-1.8037,-1.8037,-1.805,-1.8047,-1.806,-1.806,-1.8055,-1.8098,-1.8105,-1.8133,-1.8082,-1.8206,-1.821,-1.8214,-1.8253,-1.826,-1.8267,0,0,0,0,0,-1.7964,-1.8008,-1.7999,-1.8006,-1.8043,-1.8076,-1.808,-1.8074,-1.8053,-1.8073,-1.8076,-1.806,-1.8126,-1.8103,-1.811,-1.8139,-1.8205,-1.8209,-1.8213,-1.8249,-1.8259,-1.8267,0,0,0,0,0,0,-1.8,-1.8009,-1.7999,-1.8048,-1.8061,-1.807,-1.8096,-1.8084,-1.8103,-1.8099,-1.809,-1.8093,-1.8136,-1.8141,-1.8116,-1.8191,-1.8162,-1.8168,-1.8186,-1.8196,-1.8203,-1.8201,-1.8084,0,0,0,0,0,-1.8013,-1.8039,-1.8046,-1.8088,-1.8095,-1.8095,-1.8109,-1.8103,-1.8116,-1.8121,-1.8127,-1.8141,-1.8164,-1.818,-1.8202,-1.8253,-1.8255,-1.8277,-1.8284,-1.829,-1.8295,-1.8322,-1.8332,-1.823,-1.823,-1.823,0,0,-1.8041,-1.805,-1.8067,-1.8095,-1.8105,-1.8132,-1.81,-1.813,-1.815,-1.8126,-1.8165,-1.8169,-1.8183,-1.8229,-1.825,-1.8235,-1.8324,-1.8295,-1.83,-1.8302,-1.8328,-1.8338,-1.8346,-1.8233,-1.8232,-1.8232,0,0,-1.8106,-1.8115,-1.8151,-1.8162,-1.8177,-1.8176,-1.8184,-1.8196,-1.8198,-1.8236,-1.8219,-1.8242,-1.8283,-1.8294,-1.8305,-1.8373,-1.8359,-1.838,-1.8419,-1.8445,-1.8453,-1.846,-1.8485,-1.8494,-1.8386,-1.8386,-1.8386,0,-1.8139,-1.818,-1.8171,-1.8203,-1.8216,-1.8195,-1.8232,-1.8242,-1.8263,-1.8273,-1.8256,-1.8306,-1.8314,-1.8363,-1.8379,-1.8389,-1.8398,-1.8379,-1.8453,-1.846,-1.8466,-1.8489,-1.8499,-1.8388,-1.8388,-1.8388,-1.8388,0,-1.822,-1.8248,-1.8275,-1.8296,-1.8312,-1.8346,-1.8342,-1.836,-1.8352,-1.8352,-1.8392,-1.84,-1.8424,-1.8434,-1.8427,-1.8481,-1.8472,-1.8454,-1.8424,-1.8479,-1.85,-1.8509,-1.8392,-1.8391,-1.839,-1.839,0,0,-1.8309,-1.8325,-1.8335,-1.8344,-1.8359,-1.838,-1.8412,-1.8435,-1.845,-1.8465,-1.8492,-1.8527,-1.851,-1.8522,-1.8516,-1.8539,-1.8593,-1.8518,-1.8518,-1.8532,-1.8653,-1.8667,-1.8677,-1.8583,-1.8584,-1.8586,-1.8652,0,-1.8375,-1.8431,-1.8425,-1.8479,-1.8505,-1.8485,-1.8513,-1.8525,-1.8526,-1.8548,-1.8549,-1.8574,-1.855,-1.8557,-1.8579,-1.8581,-1.8617,-1.8576,-1.8608,-1.8609,-1.8605,-1.8689,-1.8703,-1.8765,-1.866,-1.8662,-1.8663,0,-1.8459,-1.8478,-1.8535,-1.8545,-1.8555,-1.8581,-1.8601,-1.8622,-1.8635,-1.8634,-1.8647,-1.8636,-1.8668,-1.8637,-1.8681,-1.8654,-1.8666,-1.8669,-1.8671,-1.8674,-1.864,-1.8695,-1.8785,-1.8795,-1.8676,-1.8675,-1.8674,0,-1.8519,-1.8558,-1.8597,-1.8605,-1.8618,-1.8637,-1.8643,-1.8654,-1.8668,-1.8685,-1.8694,-1.8714,-1.8726,-1.8742,-1.8737,-1.8715,-1.8782,-1.875,-1.8782,-1.8782,-1.8798,-1.8797,-1.8892,-1.8804,-1.8804,-1.8804,-1.8804,0,-1.8594,-1.863,-1.8624,-1.8648,-1.8687,-1.8678,-1.8717,-1.8721,-1.873,-1.8754,-1.8738,-1.8761,-1.8753,-1.8775,-1.8771,-1.8807,-1.8813,-1.8813,-1.8811,-1.8815,-1.8815,-1.8823,-1.8819,-1.8807,-1.8806,-1.8806,-1.8805,0,-1.8668,-1.8666,-1.8707,-1.8715,-1.8718,-1.8747,-1.8754,-1.8776,-1.8776,-1.8806,-1.8813,-1.8812,-1.8838,-1.8834,-1.8862,-1.8859,-1.8905,-1.8898,-1.8901,-1.8899,-1.8931,-1.8929,-1.9036,-1.9049,-1.8953,-1.8954,-1.8954,0,-1.8716,-1.8743,-1.8755,-1.877,-1.8777,-1.8802,-1.8816,-1.8808,-1.8823,-1.8839,-1.886,-1.8883,-1.8902,-1.8943,-1.8945,-1.8966,-1.8959,-1.8995,-1.8962,-1.8965,-1.896,-1.8959,-1.8961,-1.9002,-1.9003,-1.9004,-1.9005,0,-1.8802,-1.8799,-1.8821,-1.8841,-1.8859,-1.8875,-1.8889,-1.8902,-1.8895,-1.8913,-1.8939,-1.8953,-1.8981,-1.9005,-1.9025,-1.903,-1.9017,-1.9015,-1.9023,-1.9027,-1.9028,-1.9028,-1.8919,-1.9013,-1.9012,-1.9011,-1.9011,-1.9011,-1.8865,-1.8888,-1.8899,-1.8923,-1.8933,-1.8947,-1.8968,-1.897,-1.8992,-1.9014,-1.9008,-1.9037,-1.9048,-1.9073,-1.9081,-1.9103,-1.9089,-1.9102,-1.9105,-1.9108,-1.9112,-1.9024,-1.9106,-1.9106,-1.9106,-1.9106,-1.9105,0,-1.895,-1.8957,-1.8979,-1.8999,-1.9018,-1.9003,-1.9018,-1.9034,-1.906,-1.9072,-1.909,-1.912,-1.9142,-1.9145,-1.9167,-1.9184,-1.9178,-1.919,-1.9189,-1.919,-1.9123,-1.9114,-1.9194,-1.9194,-1.9194,-1.9194,-1.9194,-1.9194,-1.8997,-1.9035,-1.9034,-1.9076,-1.9082,-1.911,-1.912,-1.9132,-1.9142,-1.9175,-1.9194,-1.9196,-1.9204,-1.9225,-1.9245,-1.9245,-1.9254,-1.9269,-1.9266,-1.9204,-1.9195,-1.9187,-1.9178,-1.927,-1.9271,-1.9332,-1.9332,-1.9333]},{"header":{"parameterUnit":"m.s-1","parameterCategory":1,"la1":30.2991,"la2":30.254,"lo1":-89.0895,"lo2":-89.0444,"dx":0.0017,"dy":0.0017,"nx":28,"ny":28,"refTime":"2023-01-09T03:00:00:Z","depth":0,"parameterNumber":3,"parameterNumberName":"V-component_of_WINDS"},"data":[0,0,0,0,0,0,0,0,0,0,0,0,0,0,0,0,0,0,0,0,0,0,0,0,0,0,0,0,0,0,0,0,0,0,0,0,0,0,0,0,0,0,0,0,0,0,0,0,0,0,0,0,0,0,0,0,0,0,-4.7008,-4.7009,0,-4.7074,-4.7075,-4.7076,-4.7029,-4.7027,-4.7025,-4.7023,-4.7086,-4.7089,-4.7093,0,0,0,0,0,0,0,0,0,0,0,0,0,-4.6836,-4.6839,-4.7008,-4.7009,-4.701,-4.7074,-4.7075,-4.7076,-4.7029,-4.7027,-4.7024,-4.7022,-4.7085,-4.7089,-4.7093,0,0,0,0,0,0,0,0,0,0,0,0,0,-4.6907,-4.6841,-4.7008,-4.6994,-4.6994,-4.7074,-4.7075,-4.7076,-4.703,-4.7027,-4.7023,-4.7021,-4.7083,-4.7088,-4.7094,-4.719,0,0,-4.711,-4.7113,0,0,0,0,0,0,0,0,-4.6903,-4.6914,-4.6995,-4.6995,-4.6995,-4.704,-4.7038,-4.7114,-4.7031,-4.7016,-4.7023,-4.7019,-4.7073,-4.7079,-4.7098,-4.7193,-4.7195,-4.7111,-4.7114,-4.7116,-4.7118,0,0,0,0,0,0,0,-4.6898,-4.691,-4.7034,-4.6997,-4.6996,-4.6983,-4.699,-4.7052,-4.7061,-4.7017,-4.7014,-4.7022,-4.7072,-4.7093,-4.7099,-4.7196,-4.7111,-4.7115,-4.7119,-4.7121,-4.7373,-4.7376,0,0,0,0,0,0,-4.6895,-4.6907,-4.7032,-4.7036,-4.6941,-4.6989,-4.6996,-4.7029,-4.706,-4.7062,-4.7025,-4.702,-4.7085,-4.7093,-4.7101,-4.7216,-4.7116,-4.7121,-4.7125,-4.7369,-4.7374,-4.7377,0,0,0,0,0,0,-4.6892,-4.6907,-4.7029,-4.6971,-4.6985,-4.6995,-4.7032,-4.7032,-4.7053,-4.7066,-4.7067,-4.7045,-4.7083,-4.7093,-4.7168,-4.7218,-4.7124,-4.7129,-4.7365,-4.7371,-4.7375,-4.7447,0,0,0,0,0,0,-4.6887,-4.6906,-4.6944,-4.6972,-4.6989,-4.7097,-4.7035,-4.7035,-4.7063,-4.7057,-4.7085,-4.7087,-4.7081,-4.7161,-4.7174,-4.7223,-4.7133,-4.7361,-4.7368,-4.7374,-4.744,-4.7453,-4.7465,0,0,0,0,0,-4.6881,-4.696,-4.6946,-4.6961,-4.7036,-4.71,-4.711,-4.7103,-4.7067,-4.7104,-4.7113,-4.7086,-4.721,-4.7169,-4.7183,-4.7235,-4.7358,-4.7366,-4.7373,-4.7434,-4.7451,-4.7465,0,0,0,0,0,0,-4.6936,-4.6964,-4.6948,-4.7039,-4.7068,-4.7092,-4.7139,-4.7121,-4.7159,-4.7152,-4.714,-4.7147,-4.7226,-4.7237,-4.7191,-4.7329,-4.7278,-4.7289,-4.7319,-4.7335,-4.7348,-4.7343,-4.7138,0,0,0,0,0,-4.6959,-4.701,-4.7031,-4.7108,-4.7124,-4.7129,-4.7157,-4.7149,-4.7178,-4.7189,-4.7204,-4.7231,-4.7276,-4.7306,-4.7348,-4.7441,-4.7446,-4.7484,-4.7496,-4.7507,-4.7516,-4.7566,-4.7583,-4.7403,-4.7403,-4.7403,0,0,-4.7006,-4.7027,-4.706,-4.712,-4.7142,-4.7194,-4.714,-4.7197,-4.7235,-4.7197,-4.727,-4.7281,-4.7311,-4.7396,-4.7433,-4.7408,-4.7567,-4.7516,-4.7525,-4.7529,-4.7576,-4.7593,-4.7608,-4.7408,-4.7407,-4.7406,0,0,-4.7119,-4.714,-4.7208,-4.7231,-4.7265,-4.7268,-4.7284,-4.7312,-4.7318,-4.7391,-4.7364,-4.7408,-4.7486,-4.7509,-4.753,-4.7652,-4.7629,-4.7666,-4.7732,-4.7781,-4.7795,-4.7808,-4.7852,-4.7867,-4.7675,-4.7676,-4.7676,0,-4.7173,-4.7252,-4.7245,-4.7305,-4.7331,-4.7301,-4.7369,-4.7391,-4.7436,-4.7455,-4.7426,-4.7524,-4.7541,-4.7631,-4.7661,-4.7679,-4.7697,-4.7663,-4.7794,-4.7807,-4.7818,-4.786,-4.7876,-4.768,-4.7679,-4.7679,-4.7679,0,-4.7317,-4.7372,-4.7422,-4.7469,-4.7501,-4.7565,-4.7566,-4.7599,-4.7588,-4.7594,-4.7668,-4.7688,-4.7734,-4.7755,-4.7744,-4.7843,-4.7826,-4.7796,-4.7744,-4.784,-4.7879,-4.7895,-4.7686,-4.7685,-4.7683,-4.7682,0,0,-4.7467,-4.7509,-4.7528,-4.7549,-4.7584,-4.7626,-4.7687,-4.7734,-4.7763,-4.7794,-4.7845,-4.7912,-4.7884,-4.7909,-4.79,-4.7943,-4.8039,-4.7908,-4.7908,-4.7932,-4.8149,-4.8172,-4.8191,-4.8023,-4.8026,-4.8029,-4.8147,0,-4.7582,-4.7692,-4.7687,-4.7789,-4.7839,-4.7811,-4.7865,-4.7891,-4.7898,-4.794,-4.7947,-4.7995,-4.7955,-4.7969,-4.801,-4.8019,-4.8082,-4.801,-4.807,-4.8072,-4.8064,-4.8211,-4.8236,-4.8346,-4.8162,-4.8164,-4.8166,0,-4.7732,-4.7771,-4.7879,-4.7907,-4.7928,-4.7976,-4.8019,-4.806,-4.8089,-4.8091,-4.8119,-4.8103,-4.8164,-4.811,-4.8193,-4.8144,-4.8168,-4.8176,-4.818,-4.8185,-4.8126,-4.8222,-4.8381,-4.8398,-4.819,-4.8188,-4.8186,0,-4.7831,-4.791,-4.7985,-4.8004,-4.8038,-4.8073,-4.8089,-4.8115,-4.8143,-4.818,-4.8198,-4.824,-4.8263,-4.8296,-4.8291,-4.8253,-4.8376,-4.8322,-4.8379,-4.8379,-4.8407,-4.8405,-4.8573,-4.8421,-4.8421,-4.842,-4.842,0,-4.7961,-4.8028,-4.8031,-4.8077,-4.8151,-4.8143,-4.8216,-4.8228,-4.8251,-4.8298,-4.8275,-4.8319,-4.831,-4.8354,-4.835,-4.842,-4.843,-4.8433,-4.8431,-4.8435,-4.8435,-4.8451,-4.8444,-4.8425,-4.8424,-4.8423,-4.8422,0,-4.8085,-4.8089,-4.8169,-4.8196,-4.8204,-4.8257,-4.8279,-4.8322,-4.8327,-4.8386,-4.84,-4.8407,-4.8457,-4.8456,-4.8512,-4.8509,-4.8595,-4.8584,-4.8586,-4.8584,-4.8642,-4.8636,-4.8827,-4.8851,-4.8682,-4.8684,-4.8685,0,-4.8168,-4.8219,-4.8252,-4.8283,-4.8301,-4.8351,-4.838,-4.8374,-4.8406,-4.8443,-4.8481,-4.8529,-4.8568,-4.8648,-4.8658,-4.87,-4.8691,-4.8754,-4.8697,-4.87,-4.8692,-4.869,-4.8695,-4.8766,-4.8768,-4.8769,-4.877,0,-4.8315,-4.8315,-4.836,-4.8406,-4.8442,-4.8477,-4.8509,-4.8535,-4.8532,-4.8568,-4.862,-4.865,-4.8709,-4.8757,-4.8798,-4.8811,-4.8791,-4.8788,-4.8804,-4.8809,-4.8809,-4.8811,-4.8618,-4.8784,-4.8783,-4.8782,-4.8781,-4.8781,-4.8422,-4.8467,-4.8497,-4.8547,-4.8571,-4.8602,-4.8644,-4.8655,-4.8699,-4.8747,-4.874,-4.8798,-4.8825,-4.8878,-4.8896,-4.894,-4.8918,-4.894,-4.8946,-4.8952,-4.8959,-4.8801,-4.8947,-4.8947,-4.8947,-4.8946,-4.8946,0,-4.8569,-4.8587,-4.8634,-4.8681,-4.872,-4.8698,-4.8733,-4.8767,-4.8819,-4.8846,-4.8885,-4.8945,-4.8991,-4.9004,-4.9048,-4.9081,-4.9073,-4.9093,-4.9091,-4.9094,-4.8976,-4.8959,-4.9099,-4.9099,-4.9099,-4.9099,-4.9099,-4.9099,-4.865,-4.8725,-4.8728,-4.8814,-4.8831,-4.8889,-4.8911,-4.8939,-4.8961,-4.9029,-4.9069,-4.9077,-4.9099,-4.9144,-4.9186,-4.9188,-4.9206,-4.923,-4.9229,-4.9118,-4.9103,-4.9088,-4.9072,-4.9234,-4.9234,-4.9344,-4.9345,-4.9346]}]]